Weather reports worldwide

Advertisment
Weybourne, United Kingdom (3488): temperature & dewpoint: 23.04.2017 06:00:00 - 29.04.2017 06:00:00 (BST)Weybourne, United Kingdom (3488): wind speed & gusts: 23.04.2017 06:00:00 - 29.04.2017 06:00:00 (BST)Weybourne, United Kingdom (3488): wind direction: 23.04.2017 06:00:00 - 29.04.2017 06:00:00 (BST)Weybourne, United Kingdom (3488): reduced air pressure: 23.04.2017 06:00:00 - 29.04.2017 06:00:00 (BST)Weybourne, United Kingdom (3488): visibility: 23.04.2017 06:00:00 - 29.04.2017 06:00:00 (BST)Weybourne, United Kingdom (3488): precipitation: 23.04.2017 06:00:00 - 29.04.2017 06:00:00 (BST)
Date & Time tt [°C] td [°C] ff [km/h] ff [kn] fx [km/h] fx [kn] dd ppp [hPa] vv [km] rr [mm]
29.04.2017 06:00:00 7,2 4,9 22 12 - - S 1015,6 35 0,0
29.04.2017 05:00:00 7,3 4,9 22 12 - - S 1015,6 22 0,0
29.04.2017 04:00:00 6,9 4,9 22 12 - - S 1015,7 35 0,0
29.04.2017 03:00:00 6,9 4,7 18 10 - - S 1015,9 50 0,0
29.04.2017 02:00:00 7,0 4,5 18 10 - - S 1016,1 50 0,0
29.04.2017 01:00:00 7,0 4,1 18 10 - - S 1016,4 50 0,0
29.04.2017 00:00:00 7,0 3,9 18 10 - - S 1016,6 40 0,0
28.04.2017 23:00:00 6,8 2,8 11 6 - - SSE 1017,0 50 0,0
28.04.2017 22:00:00 6,1 3,4 8 4 - - SSE 1017,1 30 0,0
28.04.2017 21:00:00 5,3 2,9 4 2 - - S 1016,9 45 0,0
28.04.2017 20:00:00 6,3 2,0 2 1 - - SE 1016,7 45 0,0
28.04.2017 19:00:00 8,1 2,7 4 2 - - N 1016,8 50 0,0
28.04.2017 18:00:00 8,8 2,8 8 4 - - NNW 1016,8 50 0,0
28.04.2017 17:00:00 9,2 3,2 11 6 - - NNW 1016,7 40 0,0
28.04.2017 16:00:00 9,9 4,1 11 6 - - NNW 1016,6 40 0,0
28.04.2017 15:00:00 9,9 4,6 13 7 - - NNW 1016,7 19 0,0
28.04.2017 14:00:00 9,9 4,8 13 7 - - NNW 1016,7 50 0,0
28.04.2017 13:00:00 9,6 6,5 21 11 - - NW 1016,5 29 0,4
28.04.2017 12:00:00 8,5 4,9 15 8 - - NW 1016,4 40 0,0
28.04.2017 11:00:00 6,9 4,3 24 13 - - NNW 1016,3 9 0,2
28.04.2017 10:00:00 8,5 5,4 28 15 - - NW 1016,1 23 0,0
28.04.2017 09:00:00 8,4 5,6 31 17 - - NW 1016,0 13 0,0
28.04.2017 08:00:00 7,7 5,2 31 17 - - NW 1015,6 19 0,0
28.04.2017 07:00:00 6,7 4,7 29 16 - - NW 1015,4 15 0,0
28.04.2017 06:00:00 6,2 3,7 26 14 46 25 NNW 1015,2 27 0,4
28.04.2017 05:00:00 7,2 3,5 29 16 - - NNW 1015,1 25 0,0
28.04.2017 04:00:00 6,7 4,3 26 14 - - NNW 1015,1 16 0,0
28.04.2017 03:00:00 6,8 3,9 34 18 - - NNW 1015,2 30 0,0
28.04.2017 02:00:00 6,9 3,7 34 18 - - NW 1015,3 40 0,0
28.04.2017 01:00:00 7,0 4,0 28 15 - - NW 1015,5 23 0,0
28.04.2017 00:00:00 7,6 4,9 31 17 - - NW 1015,4 24 0,0
27.04.2017 23:00:00 8,0 6,0 28 15 - - NW 1015,3 25 0,0
27.04.2017 22:00:00 6,7 6,0 9 5 - - W 1015,5 22 0,0
27.04.2017 21:00:00 6,4 5,4 9 5 - - W 1015,3 15 0,0
27.04.2017 20:00:00 6,9 5,1 8 4 - - W 1015,2 22 0,0
27.04.2017 19:00:00 8,3 6,6 15 8 - - NNW 1015,3 11 0,0
27.04.2017 18:00:00 8,4 6,8 11 6 - - W 1015,2 30 0,0
27.04.2017 17:00:00 8,6 6,8 15 8 - - WSW 1015,3 25 0,0
27.04.2017 16:00:00 9,3 6,8 18 10 - - W 1015,5 28 0,0
27.04.2017 15:00:00 8,5 6,5 21 11 - - W 1015,9 24 0,2
27.04.2017 14:00:00 7,5 6,0 21 11 - - W 1016,4 12 0,2
27.04.2017 13:00:00 7,4 5,2 24 13 - - W 1016,6 20 0,0
27.04.2017 12:00:00 7,7 5,9 26 14 - - W 1016,9 16 0,2
27.04.2017 11:00:00 8,1 2,8 24 13 - - W 1017,4 29 0,0
27.04.2017 10:00:00 7,6 3,3 21 11 - - WSW 1017,4 50 0,0
27.04.2017 09:00:00 6,7 3,4 22 12 - - W 1017,6 35 0,0
27.04.2017 08:00:00 5,3 2,7 21 11 - - WSW 1017,9 50 0,0
27.04.2017 07:00:00 3,4 1,6 21 11 - - WSW 1018,2 40 0,0
27.04.2017 06:00:00 2,5 1,3 18 10 - - WSW 1018,4 25 0,0
27.04.2017 05:00:00 3,3 1,8 16 9 - - WSW 1018,5 45 0,0
27.04.2017 04:00:00 4,4 2,6 37 20 46 25 NW 1018,8 7 0,2
27.04.2017 03:00:00 5,2 1,9 21 11 - - NNW 1018,8 26 0,2
27.04.2017 02:00:00 5,6 1,7 22 12 - - N 1019,0 23 0,0
27.04.2017 01:00:00 5,2 2,3 21 11 - - N 1019,3 29 0,2
27.04.2017 00:00:00 5,8 1,2 26 14 - - N 1019,5 30 0,0
26.04.2017 23:00:00 5,7 2,3 22 12 46 25 N 1019,4 18 0,0
26.04.2017 22:00:00 6,2 1,9 28 15 - - N 1019,4 26 0,0
26.04.2017 21:00:00 5,9 1,6 28 15 - - N 1019,2 13 0,0
26.04.2017 20:00:00 6,4 1,4 34 18 - - N 1018,8 13 0,0
26.04.2017 19:00:00 6,9 1,6 35 19 - - N 1018,7 13 0,0
26.04.2017 18:00:00 7,5 2,0 35 19 48 26 N 1018,4 11 0,0
26.04.2017 17:00:00 7,8 2,6 28 15 - - N 1018,3 13 0,0
26.04.2017 16:00:00 8,0 3,6 31 17 52 28 NNE 1018,3 17 0,0
26.04.2017 15:00:00 7,8 2,7 35 19 46 25 N 1017,9 18 0,0
26.04.2017 14:00:00 8,0 3,2 31 17 48 26 N 1017,5 14 0,0
26.04.2017 13:00:00 5,2 3,3 42 23 57 31 NNW 1017,3 5 0,6
26.04.2017 12:00:00 8,1 5,0 35 19 46 25 NNW 1017,0 13 0,0
26.04.2017 11:00:00 6,8 3,5 29 16 54 29 NNW 1016,6 14 0,4
26.04.2017 10:00:00 6,0 3,2 28 15 54 29 N 1016,2 14 0,2
26.04.2017 09:00:00 7,3 3,2 35 19 48 26 N 1015,6 14 0,0
26.04.2017 08:00:00 6,2 3,3 24 13 54 29 N 1015,2 10 0,0
26.04.2017 07:00:00 6,3 3,5 39 21 52 28 N 1014,9 13 0,4
26.04.2017 06:00:00 4,7 2,7 39 21 52 28 N 1014,6 5 0,2
26.04.2017 05:00:00 5,5 3,1 31 17 54 29 NNE 1014,0 13 0,4
26.04.2017 04:00:00 5,8 2,8 31 17 54 29 N 1013,8 18 0,6
26.04.2017 03:00:00 5,4 2,8 21 11 59 32 N 1013,6 14 0,8
26.04.2017 02:00:00 5,5 2,9 28 15 55 30 NNW 1013,8 19 0,0
26.04.2017 01:00:00 5,9 2,7 37 20 48 26 NNW 1013,7 24 0,0
26.04.2017 00:00:00 5,7 2,7 39 21 50 27 NNW 1013,6 14 0,6
25.04.2017 23:00:00 6,0 2,7 35 19 46 25 N 1013,3 15 0,0
25.04.2017 22:00:00 5,8 2,5 34 18 59 32 N 1013,1 13 0,6
25.04.2017 21:00:00 5,2 2,9 28 15 61 33 NNW 1012,9 10 1,2
25.04.2017 20:00:00 4,2 2,3 29 16 48 26 NNE 1012,4 9 0,8
25.04.2017 19:00:00 6,1 1,6 37 20 57 31 NNW 1012,3 11 0,0
25.04.2017 18:00:00 6,3 3,7 41 22 52 28 NNW 1012,2 11 0,0
25.04.2017 17:00:00 5,1 3,3 35 19 52 28 NW 1012,1 10 1,0
25.04.2017 16:00:00 4,1 3,0 44 24 63 34 NW 1012,5 7 0,8
25.04.2017 15:00:00 7,3 2,4 44 24 59 32 NW 1012,1 18 0,0
25.04.2017 14:00:00 10,3 2,7 31 17 50 27 WNW 1011,8 30 0,0
25.04.2017 13:00:00 7,3 1,0 37 20 48 26 WNW 1012,0 21 0,0
25.04.2017 12:00:00 6,9 0,8 37 20 54 29 WNW 1012,0 30 0,0
25.04.2017 11:00:00 7,3 2,1 35 19 50 27 WNW 1012,0 28 0,0
25.04.2017 10:00:00 5,9 2,3 31 17 52 28 WNW 1011,7 23 0,0
25.04.2017 09:00:00 5,0 2,2 42 23 50 27 WNW 1011,5 15 0,2
25.04.2017 08:00:00 4,3 1,7 34 18 68 37 NW 1011,1 18 0,0
25.04.2017 07:00:00 4,7 0,6 42 23 57 31 NNW 1010,3 16 0,4
25.04.2017 06:00:00 4,1 2,6 39 21 70 38 NNW 1009,8 16 0,8
25.04.2017 05:00:00 3,9 2,7 42 23 68 37 NW 1009,5 13 0,0
25.04.2017 04:00:00 4,5 1,1 52 28 68 37 WNW 1009,3 16 0,0
25.04.2017 03:00:00 4,4 -0,8 50 27 65 35 WNW 1009,1 25 0,0
25.04.2017 02:00:00 4,0 -0,8 46 25 65 35 WNW 1009,3 35 0,0
25.04.2017 01:00:00 4,3 -0,7 50 27 65 35 WNW 1009,6 30 0,0
25.04.2017 00:00:00 5,1 -0,1 44 24 63 34 WNW 1009,7 40 0,0
24.04.2017 23:00:00 6,4 -0,2 46 25 59 32 WNW 1009,4 40 0,0
24.04.2017 22:00:00 6,4 1,5 46 25 68 37 NW 1009,8 35 0,0
24.04.2017 21:00:00 7,8 1,7 42 23 57 31 WNW 1009,5 30 0,0
24.04.2017 20:00:00 8,9 2,2 31 17 46 25 WNW 1009,1 50 0,0
24.04.2017 19:00:00 8,8 5,2 15 8 - - SW 1009,7 50 0,0
24.04.2017 18:00:00 8,7 5,3 9 5 - - W 1010,5 50 0,0
24.04.2017 17:00:00 8,2 5,8 8 4 - - WNW 1011,0 35 0,0
24.04.2017 16:00:00 7,6 6,1 2 1 - - N 1011,7 18 0,2
24.04.2017 15:00:00 7,0 6,0 15 8 - - N 1012,5 18 0,2
24.04.2017 14:00:00 8,4 7,1 28 15 - - N 1012,5 22 0,0
24.04.2017 13:00:00 10,7 7,8 28 15 - - W 1012,5 50 0,8
24.04.2017 12:00:00 12,4 7,6 29 16 48 26 W 1013,0 50 0,0
24.04.2017 11:00:00 12,0 6,9 34 18 46 25 W 1013,7 28 0,0
24.04.2017 10:00:00 11,2 7,6 29 16 - - WSW 1014,1 45 0,0
24.04.2017 09:00:00 10,0 7,0 31 17 - - WSW 1014,5 40 0,0
24.04.2017 08:00:00 9,3 6,8 28 15 - - WSW 1014,9 35 0,0
24.04.2017 07:00:00 8,8 6,5 26 14 - - WSW 1015,3 50 0,0
24.04.2017 06:00:00 8,1 5,5 26 14 - - WSW 1015,7 45 0,0
24.04.2017 05:00:00 7,6 4,4 29 16 - - WSW 1016,0 50 0,0
24.04.2017 04:00:00 7,1 4,5 24 13 - - SW 1016,9 50 0,0
24.04.2017 03:00:00 6,5 3,8 18 10 - - WSW 1017,6 50 0,0
24.04.2017 02:00:00 6,6 2,8 22 12 - - WSW 1018,5 50 0,0
24.04.2017 01:00:00 7,4 3,1 22 12 - - WSW 1019,0 45 0,0
24.04.2017 00:00:00 7,0 3,1 22 12 - - SW 1019,5 35 0,0
23.04.2017 23:00:00 7,0 3,2 21 11 - - SW 1020,0 50 0,0
23.04.2017 22:00:00 6,9 3,2 18 10 - - SSW 1020,7 50 0,0
23.04.2017 21:00:00 7,0 3,3 15 8 - - SSW 1021,3 30 0,0
23.04.2017 20:00:00 8,4 3,8 9 5 - - SSE 1021,4 20 0,0
23.04.2017 19:00:00 10,7 4,2 9 5 - - E 1022,1 12 0,0
23.04.2017 18:00:00 11,1 4,2 11 6 - - E 1022,7 30 0,0
23.04.2017 17:00:00 10,9 4,2 13 7 - - E 1023,2 35 0,0
23.04.2017 16:00:00 9,9 4,2 18 10 - - ENE 1023,9 27 0,0
23.04.2017 15:00:00 10,2 4,0 16 9 - - E 1024,7 28 0,0
23.04.2017 14:00:00 10,7 5,7 8 4 - - NE 1025,5 35 0,0
23.04.2017 13:00:00 10,4 4,5 11 6 - - NNW 1026,1 40 0,0
23.04.2017 12:00:00 12,4 1,7 15 8 - - WSW 1026,6 19 0,0
23.04.2017 11:00:00 11,5 0,1 16 9 - - WSW 1027,1 40 0,0
23.04.2017 10:00:00 10,9 1,9 13 7 - - WSW 1027,3 50 0,0
23.04.2017 09:00:00 8,7 2,1 13 7 - - WSW 1027,6 45 0,0
23.04.2017 08:00:00 6,8 2,2 11 6 - - SW 1027,6 50 0,0
23.04.2017 07:00:00 5,9 2,4 11 6 - - SW 1027,5 50 0,0
23.04.2017 06:00:00 5,7 2,3 11 6 - - WSW 1027,5 50 0,0

tt = temperature
td = dewpoint
ff = wind speed
fx = gusts
dd = wind direction
ppp = reduced air pressure
vv = visibility
rr = precipitation

Next stations